Regional Weather Roundup
Issued by NWS Wakefield, VA

Home | Current Version | Previous Version | Text Only | Print | Product List | Glossary On
Versions: 1 2 3 4 5 6 7 8 9 10 11 12 13 14 15 16 17 18 19 20 21 22 23 24 25 26 27
000
ASUS41 KAKQ 211115
RWRAKQ

REGIONAL WEATHER ROUNDUP
NATIONAL WEATHER SERVICE WAKEFIELD VA
700 AM EDT MON AUG 21 2017

Note: "fair" indicates few or no clouds below 12,000 feet with no
significant weather and/or obstructions to visibility. * = Denotes
station may not report precipitation (e.g., rain,snow,etc.),
thunder or fog.

VAZ042-051-052>054-056-211200-
NORTHERN VIRGINIA

CITY           SKY/WX    TMP DP  RH WIND       PRES   REMARKS
WASH NATIONAL  MOCLDY    75  71  87 SE6       30.20S
DULLES         MOCLDY    72  70  93 SE5       30.20S
FORT BELVOIR   PTCLDY    71  69  95 CALM      30.20S
QUANTICO       MOCLDY    75  71  87 NW3       30.20S
FREDERICKSBRG* CLEAR     70  70 100 SE3       30.19S
STAFFORD*      CLEAR     66  66 100 NW3       30.24R FOG
WARRENTON      PTCLDY    68  65  90 CALM      30.20R FOG
CULPEPER*      CLEAR     68  68 100 N3        30.21S FOG
MANASSAS*      CLEAR     70  68  93 CALM      30.20S
LEESBURG*      PTCLDY    70  70 100 CALM      30.22R
WINCHESTER     CLEAR     64  63  94 CALM      30.21R FOG
FRONT ROYAL*   SUNNY     66  66 100 CALM      30.19S
LURAY*         FOG       66  66 100 CALM      30.22R VSB 1/4
$$

VAZ048-049-060>072-079>083-211200-
CENTRAL AND SOUTH CENTRAL VIRGINIA

CITY           SKY/WX    TMP DP  RH WIND       PRES   REMARKS
RICHMOND       FOG       73  73 100 CALM      30.21R VSB 1/2
CHESTERFIELD*  FOG       73  72  96 CALM      30.21S VSB 1/4
PETERSBURG*    FOG       71  71 100 CALM      30.21S VSB 1/4
HANOVER        CLOUDY    70  68  93 MISG      30.21S FOG
TAPPAHANNOCK*  PTCLDY   N/A N/A N/A CALM      30.22R
QUINTON*       CLOUDY    73  73 100 S6        30.21R FOG
CHARLOTTSVILLE PTCLDY    71  69  93 CALM      30.20S FOG
GORDONSVILLE*  SUNNY     67  67 100 CALM      30.20R FOG
ORANGE*        CLEAR     68  66  94 CALM      30.20S
LOUISA*          N/A     68  66  94 CALM      30.20S FOG
BUMPASS*       CLOUDY    72  72 100 CALM      30.20S
FARMVILLE*     FOG       72  70  94 CALM      30.19S VSB<1/4
CREWE*         CLOUDY    68  64  87 CALM      30.20S VSB 1
FORT PICKETT*    N/A    N/A N/A N/A S8        30.21R VSB 1/4
CHASE CITY*    FAIR      71  71  99 CALM      30.21R
CLARKSVILLE*   FAIR      70  70 100 CALM      30.21R
SOUTH HILL*    MOCLDY    69  69 100 CALM      30.26S
LAWRENCEVILLE* CLOUDY    71  70  97 CALM      30.21R VSB<1/4
EMPORIA*       FOG       70  70 100 CALM      30.22S VSB 1/4
$$

VAZ088>098-211200-
SOUTHEAST VIRGINIA

CITY           SKY/WX    TMP DP  RH WIND       PRES   REMARKS
NORFOLK        CLEAR     77  75  93 CALM      30.21R
VIRGINIA BEACH CLEAR     71  70  96 CALM      30.20R
NORFOLK NAVAL  PTCLDY    75  73  93 CALM      30.22R FOG
WEST POINT*    PTCLDY    72  71  97 CALM      30.22R
SALUDA*        FAIR      72  72 100 CALM      30.21R
NEWPORT NEWS   CLEAR     72  70  93 CALM      30.21R FOG
LANGLEY AFB    PTCLDY    74  74 100 CALM      30.21R
FORT EUSTIS    PTCLDY    74  72  94 CALM      30.19R
WILLIAMSBURG*  CLEAR     75  73  94 CALM      30.22R
HR EXEC AP*    FAIR      66  64  94 CALM      30.19R
FRANKLIN*      FOG       72  71  98 CALM      30.21S VSB<1/4
US460-WAKEFLD  FOG       73  73 100 CALM      30.21S VSB<1/4
$$

VAZ020-022-025-037-045-211200-
WEST CENTRAL AND SOUTHWEST VIRGINIA

CITY           SKY/WX    TMP DP  RH WIND       PRES   REMARKS
STAUNTON*      CLEAR     64  63  98 CALM      30.25S FOG
WAYNESBORO*    SUNNY     67  67 100 CALM      30.25R
HOT SPRINGS VA MOCLDY    68  59  73 CALM      30.37R
LYNCHBURG      PTCLDY    68  68 100 CALM      30.23R FOG
DANVILLE       CLOUDY    70  70 100 CALM      30.21S FOG
SOUTH BOSTON*    N/A     69  67  94 CALM      30.21R VSB 1
MARTINSVILLE   PTCLDY    66  65  98 CALM      30.25R FOG
ROANOKE        PTCLDY    68  66  93 W3        30.26R
BLACKSBURG     CLEAR     64  64  99 CALM      30.32R FOG
DUBLIN*        CLEAR     65  65 100 CALM      30.31R FOG
MARION*        CLEAR     65  53  65 CALM      30.33R HAZE
HILLSVILLE*    CLEAR     65  61  86 CALM      30.31R
RICHLANDS*     FAIR      68  58  71 CALM      30.31R
WISE*          CLEAR     68  66  94 S6        30.31R
ABINGDON*      CLEAR     69  67  93 CALM      30.28R
$$

MDZ021>025-VAZ099-100-211200-
SOUTHERN MARYLAND AND THE DELMARVA PENINSULA

CITY           SKY/WX    TMP DP  RH WIND       PRES   REMARKS
PATUXENT RIVER MOCLDY    72  72 100 S5        30.20R
BAY BRIDGE APT PTCLDY    73  68  83 CALM      30.20S
LEONARDTOWN    CLOUDY    70  68  94 CALM      30.22S
DOVER          MOCLDY    68  66  94 CALM      30.21R
GEORGETOWN     PTCLDY    67  64  90 CALM      30.23R
EASTON         NOT AVBL
CAMBRIDGE      MOCLDY    68  66  94 CALM      30.21R
SALISBURY      PTCLDY    67  66  97 E3        30.22R
OCEAN CITY     PTCLDY    67  67 100 CALM      30.23R
WALLOPS ISLAND CLEAR     70  70 100 CALM      30.22R
ACCOMACK*      CLEAR     69  68  98 CALM      30.22R FOG
$$

NCZ012>017-030>032-211200-
NORTH CENTRAL AND EASTERN NORTH CAROLINA

CITY           SKY/WX    TMP DP  RH WIND       PRES   REMARKS
ROANOKE RAPIDS FOG       68  68 100 CALM      30.21R VSB 1/4
RALEIGH        PTCLDY    72  70  93 CALM      30.20S
ELIZABETH CITY CLEAR     76  76 100 E3        30.20R
AHOSKIE*       NOT AVBL
EDENTON*       CLOUDY    73  72  95 CALM      30.21R FOG
CURRITUCK*     CLEAR     71  70  96 CALM      30.21R FOG
KILL DEVIL HLS MOCLDY    76  76 100 CALM      30.19R
MANTEO         CLOUDY    77  76  96 E5        30.20R
CAPE HATTERAS  MOCLDY    78  78 100 E5        30.19R
TARBORO*       NOT AVBL
GOLDSBORO      FOG       73  73 100 VRB2      30.20R VSB 1/8
WASHINGTON     FOG       73  72  98 CALM      30.21R VSB 1/4
GREENVILLE     FOG       70  70 100 CALM      30.21R VSB<1/4
NEW BERN       CLOUDY    75  75 100 CALM      30.20R
WILMINGTON     MOCLDY    76  75  97 CALM      30.18R
$$

VAZ048-211200-
ELSEWHERE

CITY           SKY/WX    TMP DP  RH WIND       PRES   REMARKS
HARRISBURG PA  MOCLDY    67  64  90 E5        30.20R
BALTIMORE      MOCLDY    70  69  97 SE3       30.20S
ANNAPOLIS      PTCLDY    75  74  96 CALM      30.20S
ANDREWS AFB    PTCLDY    70  67  92 CALM      30.20S
PHILADELPHIA   MOCLDY    69  66  90 CALM      30.21S
HENDERSON NC   CLEAR     67  66  97 CALM      30.22R FOG
GREENSBORO     MOCLDY    74  71  91 CALM      30.21S
ROCKY MOUNT    FOG       70  70 100 CALM      30.21R VSB<1/4
$$

VAZ100-211200-
MARINE

STATION/POSITION TIME  TEMP    WIND        PRES    WAVE   SWELL
                       AIR SEA DIR/SP/G            HT/PER HT/PER
                 (UTC) (F)     (DEG/KT/KT) (MB)    (FT/S) (FT/S)
BRANDYWINE LGT   1036   76     230/  5/  6 1023.6R
CAPE MAY NJ      1048   70 77  100/  2/  2 1022.8R
LEWES DE         1048   70 77  240/  2/  3 1022.9R
15NM E FENWICK I 1050   77 78  160/  2/  2 1023.6R   2/ 8   2/ 8
OCEAN-CITY-INLET 1048   73 78   30/  2/  2 1023.5R
WACHAPREAGUE VA  1048   73 82   CALM  /  1 1023.2R
THOMAS POINT MD  1100   77 80  140/  6/  7   N/A
GOOSES REEF MD   1100   79 80  200/  4/  6 1023.4
COVE POINT MD    1048   77     200/  5/  6 1023.3R
SOLOMONS ISLAND  1048   76 82  170/  3/  3   N/A
BISHOPS HEAD MD  1048   78 82   90/  5/  7 1023.1R
PINEY POINT MD   1048          180/  6/  7   N/A
POTOMAC MD       1100   79 82  170/  4/  6 1022.2    0
CAMBRIDGE MD     1048   75 82              1023.6R
LEWISETTA VA     1048   76 83  210/  4/  5 1022.6R
RAPPAHANNOCK LGT 1048          130/  4/  4 1023.8R
STINGRAY PT      1100   80 82  200/  6/  8 1023.2    0
YORK RVR RNG VA  1048   80     160/  4/  5 1023.4R
YORKTOWN VA      1048   77 83  190/  2/  3 1022.8R
JAMESTOWN VA     1100      84  180/  8/ 10   N/A     0
DOMINION TERM VA 1048   78     150/  3/  4 1023.1R
KIPTOPEKE VA     1048      81  140/  1/  2   N/A
CHES BAY BRIDGE  1048   78 80  180/  2/  2 1023.0R
CAPE HENRY VA    1048   77     140/  2/  3   N/A
WILLOUBY STN VA  1036   78     130/  4/  5 1023.0R
S CRANEY ISL VA  1048   78     120/  3/  3 1022.8R
CAPE HENRY BUOY  1100      80                N/A     2/ 8
1ST LANDING BUOY 1100   79 81              1023.0    1/ 3
64NM E OF VA BCH 1050   78 79   90/  8/ 10 1023.1R   2/ 8   2/ 8
DUCK PIER NC     1048   78 76   80/  6/  6 1022.1R
44100 DUCK FRF   1005      81                N/A     2/ 8
44056 DUCK FRF   1100      79                N/A     2/ 8
OREGON INLET NC  1036   78 80   70/  6/  8 1022.2R
HATTERAS NC      1048   79 78   90/  4/  5 1022.2R
DIAMOND SHLS NC  1050   82 85   40/  8/ 10 1021.7R   2/ 8   2/ 8
CAPE LOOKOUT NC  1100   81      50/  7/  7 1021.6R
$$




USA.gov is the U.S. government's official web portal to all federal, state and local government web resources and services.